Regional Weather Roundup
Issued by NWS

Home | Current Version | Previous Version | Text Only | Print | Product List | Glossary Off
Versions: 1 2 3 4 5 6 7 8 9 10 11 12 13 14 15 16 17 18 19 20 21 22 23 24 25 26 27 28 29 30 31 32 33 34 35 36 37 38 39 40 41 42 43 44 45 46 47 48 49 50

000
ASUS43 KLSX 010707
RWRMO

WEATHER SUMMARY FOR MISSOURI
NATIONAL WEATHER SERVICE SPRINGFIELD MO
200 AM CDT SAT OCT 01 2016

NOTE: "FAIR" INDICATES FEW OR NO CLOUDS BELOW 12,000 FEET WITH NO
       SIGNIFICANT WEATHER AND/OR OBSTRUCTIONS TO VISIBILITY.
       CURRENT SKY AND/OR WEATHER CONDITIONS ARE NOT AVAILABLE FOR
       CHILLICOTHE AND FARMINGTON.

MOZ001>031-035>038-043-044-053-054-010800-
...NORTHERN AND WESTERN MISSOURI...

CITY           SKY/WX    TMP DP  RH WIND       PRES   REMARKS
KANSAS CTY INT CLEAR     55  51  86 N3        30.13S
KANSAS C DTWN  CLEAR     58  54  86 N3        30.12F
LEE`S SUMMIT   CLEAR     54  52  93 CALM      30.13S
ST JOSEPH      CLEAR     50  49  96 NW3       30.14S
CHILLICOTHE      N/A     57  54  89 CALM      30.12S
KIRKSVILLE     CLOUDY    58  55  90 N5        30.10S

$$
MOZ066>068-077>081-088>096-101>105-010800-
...SOUTHWEST MISSOURI...

CITY           SKY/WX    TMP DP  RH WIND       PRES   REMARKS
SPRINGFIELD    CLEAR     52  48  86 CALM      30.10R
JOPLIN         CLOUDY    53  52  96 CALM      30.11S
BRANSON        CLEAR     55  54  94 CALM      30.11R

$$
MOZ032>034-039>042-045>050-055>058-069>072-010800-
...CENTRAL MISSOURI...

CITY           SKY/WX    TMP DP  RH WIND       PRES   REMARKS
COLUMBIA       CLOUDY    60  57  89 NW5       30.08S
JEFFERSON CITY CLOUDY    59  56  89 W3        30.08R
ROLLA          CLEAR     56  54  93 CALM      30.07R
SEDALIA        CLEAR     56  54  93 W5        30.11R
WHITEMAN AFB   CLEAR     54  54 100 SW1       30.09S
OSAGE BEACH    CLEAR     54  53  97 NW3       30.10R

$$
MOZ051-052-059>065-010800-
...EAST CENTRAL MISSOURI...

CITY           SKY/WX    TMP DP  RH WIND       PRES   REMARKS
ST LOUIS INTL  CLOUDY    63  59  87 NW7       30.03F
SPIRIT OF STL  CLOUDY    62  60  93 NW7       30.03S
ST CHARLES     MOCLDY    62  60  93 NW8       30.03S

$$
MOZ072>076-082>087-097>100-106>115-010800-
...SOUTH CENTRAL AND SOUTHEAST MISSOURI...

CITY           SKY/WX    TMP DP  RH WIND       PRES   REMARKS
CAPE GIRARDEAU CLOUDY    59  57  93 W6        30.02S
FARMINGTON     CLOUDY    61  58  90 W6        30.05S
POPLAR BLUFF   CLEAR     57  57 100 CALM      30.04S
WEST PLAINS    CLEAR     56  52  86 NW3       30.10S

$$



USA.gov is the U.S. government's official web portal to all federal, state and local government web resources and services.